Wind_Speed
17 17 16 15 15 16 16 16 17 17 16 16 16 15 14 15 16 16 16 17 17 18 18 19 19 19 20 21 22 22 22 23 23 24 25 25 26 27 27 27 27 28 28
17 17 16 16 16 16 16 16 17 17 16 16 15 15 16 16 16 17 17 17 18 18 18 19 19 19 20 21 22 22 23 24 24 25 26 27 28 28 29 29 29 29 30
17 16 16 16 16 16 16 16 16 15 15 15 15 16 16 17 17 17 17 17 18 18 19 19 19 20 20 21 22 22 24 25 25 26 26 28 29 30 31 32 31 31 31
17 16 16 16 16 16 16 16 15 15 15 16 16 17 17 17 17 17 17 18 18 19 19 19 19 20 20 21 22 23 24 25 27 27 27 28 30 31 32 33 33 33 33
16 16 16 16 16 15 15 15 16 16 16 17 17 17 17 17 17 17 18 18 18 19 19 20 20 20 20 21 22 23 24 25 26 27 28 29 30 31 33 34 35 35 34
16 16 16 16 15 15 15 16 16 16 17 17 17 17 17 17 17 18 18 18 19 19 20 20 20 20 20 21 22 24 24 25 26 27 28 29 29 31 32 34 35 36 36
16 16 16 15 15 15 16 16 17 17 17 18 18 18 18 18 18 18 18 18 19 19 20 21 22 22 22 23 24 25 25 26 27 27 28 29 30 30 31 32 35 37 37
16 16 16 16 15 16 17 17 17 18 18 18 19 19 19 19 19 19 19 20 20 21 22 23 23 24 24 24 25 25 26 26 27 28 29 29 30 31 31 32 33 36 37
15 15 16 16 17 17 18 18 18 18 19 19 19 19 19 20 20 20 21 21 22 22 23 23 24 25 25 25 25 25 26 26 27 28 29 29 30 31 31 31 32 33 36
16 16 17 17 18 18 18 19 19 19 19 20 20 20 20 21 21 21 21 22 23 24 24 24 24 25 26 26 26 26 26 27 27 27 28 29 29 29 31 32 32 33 35
17 18 18 18 19 20 20 20 20 20 21 21 21 21 21 22 22 22 22 23 24 24 24 25 26 26 27 27 28 28 27 28 27 28 28 29 29 30 31 32 32 33 34
17 18 19 19 19 20 21 21 20 20 21 21 21 21 21 22 23 24 24 24 24 25 26 26 27 28 29 29 29 29 29 29 29 29 29 30 30 30 30 31 32 32 33
18 18 19 19 19 19 19 19 19 19 20 20 21 21 22 23 23 24 24 24 25 26 26 27 28 29 30 30 30 30 30 30 30 30 30 30 31 32 32 32 32 32 33
18 18 19 19 19 19 19 19 18 19 20 21 21 22 23 23 23 24 24 25 25 26 27 28 29 29 29 29 30 31 31 31 31 31 31 31 32 32 33 33 33 33 33
18 19 18 18 18 18 19 18 19 19 20 21 22 23 23 23 24 24 25 26 26 26 26 27 28 29 29 29 30 30 30 30 31 31 32 33 32 32 33 33 34 34 34
17 17 17 18 17 18 18 18 19 20 20 21 22 23 23 23 24 25 26 26 26 27 26 26 28 29 30 30 30 31 31 31 31 31 31 32 32 32 33 33 34 35 36
16 16 17 17 17 17 18 19 20 20 20 21 21 22 23 24 25 25 26 26 26 27 26 26 27 28 29 29 30 30 31 31 31 31 31 32 32 32 33 33 34 35 36
15 15 16 16 16 17 18 18 19 19 19 20 21 22 22 23 24 24 25 25 26 26 27 27 27 27 28 29 29 29 30 30 30 30 31 31 32 32 32 32 33 35 35
14 14 14 14 15 16 17 17 17 18 19 20 21 21 22 23 24 24 25 25 26 27 27 27 27 27 28 28 28 29 29 30 31 31 31 31 31 32 32 32 33 34 35
12 13 13 14 15 15 15 16 17 17 18 19 21 22 23 23 24 24 24 25 26 27 27 27 26 26 27 28 29 29 29 30 30 30 31 31 31 31 32 33 33 35 35
11 12 13 14 15 15 15 16 17 18 18 19 20 21 22 23 23 23 24 24 26 26 27 26 26 27 27 27 28 28 28 28 28 29 30 30 31 32 32 32 33 33 34
11 12 13 14 14 15 15 15 16 17 17 18 19 20 21 22 22 23 24 24 25 25 25 26 26 26 27 28 28 28 29 29 28 28 29 29 30 31 31 32 32 33 33
11 11 12 12 13 14 15 15 16 16 17 18 19 20 21 22 22 23 24 24 25 25 26 26 27 27 29 29 28 28 29 28 27 27 28 29 30 31 30 31 31 31 32
10 10 11 12 12 13 14 15 16 16 17 18 19 21 21 22 23 23 24 25 26 26 27 28 28 29 29 29 28 28 28 27 27 27 28 28 29 30 30 30 31 31 30
9 9 11 11 12 13 14 15 15 16 18 20 21 22 23 23 24 25 25 26 27 27 28 29 29 30 29 29 29 28 28 28 27 27 27 27 27 28 28 29 29 29 29
8 9 11 12 13 14 15 16 17 17 19 21 22 23 25 25 25 26 26 27 28 28 29 29 29 29 29 29 28 27 27 27 27 27 27 27 26 27 26 27 28 28 28
Wind_Direction
287 291 290 292 294 294 295 293 293 290 290 291 291 287 284 283 280 278 278 277 275 271 268 267 267 267 265 261 259 260 260 259 258 257 255 254 252 251 249 248 248 246 245
288 290 292 295 294 296 296 295 294 290 289 290 290 288 285 283 282 278 278 278 276 273 269 269 268 267 266 264 262 261 262 260 259 259 257 255 253 251 250 248 248 248 247
288 290 294 294 296 299 298 297 295 292 289 289 289 288 286 285 281 279 278 277 276 273 271 270 271 270 267 264 263 262 262 262 260 259 257 256 254 253 251 249 248 248 248
286 288 291 293 297 298 297 296 294 292 291 291 291 290 288 285 283 280 279 277 276 273 270 269 271 271 268 266 265 264 264 263 261 259 258 257 255 254 252 250 248 248 248
283 285 289 292 294 296 296 295 294 292 291 291 292 291 289 287 284 283 280 279 275 272 270 269 271 271 269 268 266 265 265 264 262 260 259 258 256 255 253 250 248 247 248
281 284 288 291 294 295 295 295 295 292 291 290 291 291 290 289 287 285 282 281 278 273 271 271 272 273 272 270 269 268 267 266 264 262 259 258 258 256 255 252 249 248 248
282 284 286 289 293 294 293 293 291 290 289 289 290 289 288 289 288 288 285 282 279 277 276 274 274 274 273 272 271 270 269 268 266 264 262 261 260 258 256 254 250 248 248
284 286 287 289 292 294 293 292 290 290 288 287 289 289 288 287 288 286 286 284 280 279 278 276 275 274 273 273 273 272 271 270 267 265 264 263 262 261 259 257 254 249 248
284 286 286 289 290 294 294 292 291 290 289 288 289 289 288 286 286 286 284 283 282 281 280 278 276 275 273 273 273 273 272 270 268 266 265 263 262 261 259 257 255 251 249
286 286 287 290 291 291 293 292 291 290 290 289 290 289 288 288 286 285 283 283 283 282 281 280 278 276 275 273 273 272 273 271 269 267 265 263 262 261 259 257 257 254 251
284 285 289 289 289 289 290 291 290 290 289 288 290 290 289 289 288 286 285 285 284 283 284 283 282 280 278 277 274 272 272 272 271 269 267 265 263 262 261 259 256 255 253
283 284 286 288 289 289 289 291 290 291 290 289 290 290 291 292 290 288 287 285 285 284 284 284 282 280 279 278 276 274 272 272 270 269 269 267 264 262 261 260 257 255 254
283 285 286 288 289 288 289 292 290 289 291 291 291 290 291 292 291 290 288 287 287 286 286 286 284 281 280 278 277 275 273 272 270 270 270 268 265 262 261 260 259 256 255
282 284 287 286 286 288 290 293 292 290 291 292 291 292 293 294 293 293 292 291 289 288 287 286 286 285 283 280 278 277 274 273 271 270 270 269 266 264 261 259 258 257 256
282 284 286 286 286 287 290 292 293 293 293 293 293 294 295 295 296 296 295 294 292 290 289 287 286 285 285 282 279 277 276 275 273 271 270 268 267 265 262 260 258 256 255
283 285 285 288 288 288 289 291 294 296 296 296 296 296 297 297 297 298 298 297 295 293 291 289 287 286 286 285 282 280 278 276 274 271 270 268 267 265 263 261 258 256 255
287 284 287 289 289 289 290 292 295 296 296 297 297 298 298 298 298 298 298 298 298 297 294 292 290 288 287 286 285 283 280 277 275 273 271 269 268 267 265 262 260 258 256
288 289 290 290 292 294 294 295 297 298 297 298 299 300 300 300 299 299 299 300 300 300 298 295 292 290 288 288 286 284 282 279 275 273 271 270 269 267 265 263 261 259 257
289 291 291 294 298 298 296 296 298 299 300 301 302 303 304 304 304 303 302 300 300 301 301 299 295 292 290 289 288 286 282 279 276 274 273 270 268 266 264 264 263 260 258
295 294 296 300 301 303 302 302 302 302 303 304 305 306 306 306 306 305 303 302 301 301 301 301 298 296 295 292 290 288 285 283 279 277 274 271 269 267 265 265 265 262 260
303 302 302 302 304 306 308 306 305 304 305 308 310 312 313 312 310 309 307 305 305 305 303 302 300 299 298 297 294 291 289 286 282 279 275 273 271 269 267 268 266 264 261
303 306 306 305 307 307 309 311 312 310 310 315 318 319 318 317 316 315 313 311 310 309 308 306 305 303 302 301 297 294 291 288 284 280 277 275 273 271 269 268 266 263 262
310 311 312 311 312 311 313 317 320 318 318 321 322 322 322 321 321 319 317 315 314 313 310 309 307 306 305 304 300 296 292 290 286 282 278 275 275 274 272 268 266 264 263
315 315 314 319 319 318 319 321 320 320 323 324 324 323 323 322 321 321 319 317 314 313 312 311 310 308 307 305 303 299 295 292 288 286 282 279 279 275 273 270 266 264 265
319 322 323 327 325 322 323 324 324 324 324 325 325 325 325 324 322 322 320 318 316 314 313 312 310 309 307 305 303 300 297 292 288 286 285 283 281 276 273 272 268 266 265
329 336 335 333 330 328 329 328 326 325 326 327 327 326 326 325 324 323 322 320 318 316 315 313 311 309 307 304 303 301 298 295 291 287 284 283 281 278 274 271 267 266 266
Height
5847 5847 5846 5845 5844 5842 5841 5840 5838 5837 5835 5834 5833 5832 5831 5830 5829 5828 5827 5826 5825 5824 5824 5823 5823 5822 5822 5822 5822 5822 5822 5823 5823 5824 5824 5825 5827 5828 5829 5830 5832 5833 5835
5843 5842 5842 5841 5840 5838 5837 5836 5834 5833 5831 5830 5829 5828 5827 5826 5825 5823 5822 5821 5820 5819 5819 5818 5818 5817 5817 5816 5816 5816 5816 5817 5817 5817 5818 5819 5820 5821 5822 5824 5826 5827 5829
5839 5838 5837 5837 5835 5834 5833 5831 5830 5829 5827 5826 5825 5824 5822 5821 5820 5819 5817 5816 5815 5814 5813 5813 5812 5812 5811 5811 5810 5810 5810 5810 5811 5811 5811 5812 5812 5814 5815 5817 5818 5820 5822
5835 5834 5833 5832 5831 5830 5829 5828 5826 5825 5824 5822 5821 5819 5818 5816 5815 5814 5812 5811 5810 5809 5808 5807 5807 5806 5805 5805 5804 5804 5804 5804 5804 5804 5804 5804 5805 5806 5807 5809 5811 5813 5814
5830 5830 5829 5828 5827 5826 5825 5823 5822 5821 5819 5818 5816 5815 5813 5812 5810 5809 5807 5806 5805 5803 5803 5802 5801 5800 5799 5799 5798 5797 5797 5797 5796 5796 5796 5797 5797 5798 5799 5800 5802 5805 5807
5826 5825 5825 5823 5822 5821 5820 5819 5818 5816 5815 5813 5812 5810 5809 5807 5805 5804 5802 5801 5799 5798 5797 5796 5795 5794 5793 5792 5791 5791 5790 5790 5789 5789 5789 5789 5790 5790 5791 5792 5794 5796 5798
5821 5821 5820 5819 5818 5817 5816 5815 5813 5812 5810 5809 5807 5806 5804 5803 5801 5799 5797 5796 5794 5793 5792 5791 5790 5788 5787 5786 5785 5784 5783 5782 5782 5782 5781 5781 5782 5782 5783 5783 5785 5787 5789
5817 5816 5815 5814 5813 5812 5811 5809 5808 5807 5805 5804 5803 5801 5800 5799 5796 5794 5792 5791 5789 5787 5786 5784 5783 5782 5781 5779 5778 5777 5776 5775 5774 5774 5774 5774 5774 5774 5774 5775 5776 5778 5780
5812 5812 5811 5810 5809 5807 5806 5804 5803 5802 5800 5799 5797 5796 5794 5793 5791 5789 5787 5785 5783 5781 5780 5778 5776 5775 5774 5772 5771 5770 5768 5767 5766 5766 5766 5765 5765 5765 5766 5766 5767 5769 5771
5808 5807 5806 5805 5804 5802 5801 5799 5798 5796 5795 5793 5792 5790 5789 5787 5785 5784 5782 5779 5777 5775 5773 5771 5769 5768 5766 5765 5763 5762 5761 5760 5759 5758 5758 5757 5757 5757 5757 5758 5759 5760 5762
5803 5802 5801 5800 5799 5797 5796 5794 5792 5791 5789 5788 5786 5784 5783 5781 5779 5777 5775 5773 5771 5768 5766 5764 5762 5760 5758 5757 5755 5754 5753 5752 5751 5750 5749 5749 5749 5749 5749 5750 5750 5751 5752
5798 5797 5796 5795 5793 5792 5790 5788 5787 5785 5783 5782 5780 5778 5776 5775 5772 5770 5768 5766 5764 5761 5759 5757 5754 5752 5750 5749 5747 5746 5745 5743 5742 5742 5741 5740 5740 5740 5740 5741 5741 5742 5744
5793 5792 5791 5790 5788 5787 5785 5783 5781 5780 5778 5776 5774 5773 5770 5768 5766 5763 5761 5759 5757 5754 5752 5749 5746 5744 5742 5740 5738 5737 5736 5734 5734 5733 5732 5731 5731 5731 5731 5732 5732 5733 5735
5788 5787 5786 5784 5783 5781 5779 5778 5776 5774 5772 5770 5768 5766 5764 5762 5759 5756 5754 5752 5749 5747 5744 5741 5738 5735 5733 5731 5729 5728 5726 5725 5724 5723 5723 5722 5722 5722 5722 5723 5723 5724 5725
5783 5782 5780 5779 5777 5776 5774 5772 5771 5769 5767 5765 5762 5760 5758 5755 5752 5749 5746 5743 5741 5739 5736 5733 5730 5727 5724 5722 5720 5718 5717 5716 5715 5714 5713 5712 5712 5712 5712 5713 5714 5715 5716
5778 5777 5775 5773 5772 5770 5769 5767 5765 5763 5761 5759 5756 5754 5751 5748 5745 5742 5739 5736 5733 5730 5728 5725 5722 5718 5715 5713 5711 5709 5708 5706 5705 5704 5703 5703 5702 5702 5702 5703 5703 5704 5705
5773 5772 5770 5769 5767 5765 5764 5762 5760 5758 5755 5753 5750 5748 5745 5741 5738 5735 5732 5728 5725 5722 5719 5717 5713 5710 5707 5704 5702 5700 5698 5696 5695 5694 5693 5693 5692 5692 5692 5692 5693 5693 5694
5769 5767 5766 5764 5762 5760 5759 5756 5754 5752 5749 5747 5744 5741 5738 5734 5731 5728 5724 5721 5717 5714 5711 5708 5705 5702 5699 5695 5693 5691 5688 5687 5685 5684 5683 5683 5682 5682 5682 5682 5682 5683 5684
5765 5763 5761 5760 5758 5756 5753 5751 5749 5746 5744 5741 5738 5734 5731 5728 5725 5721 5717 5713 5710 5706 5703 5699 5696 5693 5690 5687 5685 5682 5680 5678 5676 5674 5673 5673 5672 5672 5672 5672 5672 5672 5673
5761 5759 5757 5756 5754 5751 5749 5746 5744 5741 5738 5735 5732 5728 5725 5721 5718 5714 5710 5706 5703 5699 5695 5692 5689 5685 5682 5679 5676 5673 5671 5669 5666 5665 5663 5662 5662 5662 5662 5662 5661 5661 5661
5757 5755 5754 5752 5750 5747 5744 5742 5739 5736 5733 5730 5726 5723 5719 5715 5711 5707 5703 5700 5696 5692 5688 5684 5681 5678 5674 5671 5667 5664 5662 5659 5657 5655 5654 5653 5652 5652 5651 5650 5650 5650 5650
5754 5752 5750 5748 5745 5743 5740 5737 5734 5731 5728 5725 5722 5718 5714 5709 5705 5701 5697 5693 5689 5685 5681 5677 5674 5670 5666 5662 5659 5655 5652 5650 5648 5647 5644 5643 5642 5641 5640 5640 5639 5639 5639
5751 5749 5746 5744 5742 5739 5736 5734 5730 5727 5724 5720 5717 5713 5709 5705 5700 5696 5691 5687 5682 5678 5674 5670 5666 5662 5658 5654 5650 5647 5643 5641 5639 5637 5635 5634 5632 5631 5629 5628 5628 5628 5628
5748 5746 5744 5741 5739 5736 5733 5730 5727 5724 5720 5717 5713 5709 5705 5700 5695 5691 5686 5681 5677 5672 5667 5663 5659 5654 5650 5645 5642 5638 5635 5632 5630 5627 5625 5624 5623 5621 5619 5618 5618 5617 5617
5745 5743 5741 5739 5736 5733 5731 5728 5724 5721 5717 5713 5709 5705 5700 5695 5690 5686 5681 5676 5671 5666 5661 5656 5651 5646 5642 5637 5633 5630 5627 5624 5621 5619 5616 5614 5613 5611 5610 5609 5608 5607 5607
5743 5741 5739 5736 5734 5731 5728 5725 5721 5718 5714 5710 5705 5701 5695 5690 5685 5680 5675 5670 5665 5660 5654 5649 5644 5639 5634 5629 5625 5621 5618 5615 5612 5610 5607 5605 5604 5602 5601 5600 5599 5598 5598